This demonstration page uses our WeatherBlox Daily Observations layout. Learn more.

Left ArrowRight Arrow

39.92423, -83.80882

Hourly Observations for September 18, 2015

Temp ( °F °C ) Dew Point ( °F °C ) Humidity (%) Winds ( mph kmh ) Pressure ( in mb ) Visibility ( mi km ) Precip ( " mm )
12:56 am 00:56 Clear 62 16.6 55 12.7 78 78 SSW 7 11 30.02 1017 10 16 N/A
1:56 am 01:56 Clear 64 17.7 55 12.7 73 73 S 6 9 30.01 1016 10 16 N/A
2:56 am 02:56 Clear 62 16.6 56 13.3 81 81 SSW 5 7 30.01 1016 10 16 N/A
3:56 am 03:56 Clear 61 16.1 55 12.7 80 80 S 5 7 30.00 1016 10 16 N/A
4:56 am 04:56 Clear 59 15 55 12.7 86 86 S 3 6 30.00 1016 10 16 N/A
5:56 am 05:56 Clear 60 15.5 55 12.7 84 84 S 5 7 29.99 1016 10 16 N/A
6:56 am 06:56 Clear 60 15.5 56 13.3 87 87 SSW 5 7 29.99 1016 10 16 N/A
7:56 am 07:56 Sunny 62 16.6 57 13.8 84 84 S 5 7 30.01 1016 10 16 N/A
8:56 am 08:56 Sunny 64 17.7 58 14.4 81 81 S 6 9 30.01 1016 10 16 N/A
9:56 am 09:56 Mostly Sunny 71 21.6 60 15.5 68 68 SSW 9 15 30.01 1016 10 16 N/A
10:56 am 10:56 Mostly Cloudy 71 21.6 61 16.1 71 71 S 12 19 29.98 1015 10 16 N/A
11:56 am 11:56 Sunny 71 21.6 61 16.1 71 71 SW 10 17 29.96 1015 10 16 N/A
12:56 pm 12:56 Sunny 74 23.3 63 17.2 69 69 SSW 8 13 29.96 1015 10 16 N/A
1:56 pm 13:56 Sunny 81 27.2 63 17.2 54 54 SSW 12 19 29.96 1015 10 16 N/A
2:56 pm 14:56 Sunny 83 28.3 64 17.7 53 53 SW 10 17 29.94 1014 10 16 N/A
3:56 pm 15:56 Partly Cloudy 82 27.7 64 17.7 55 55 SSW 8 13 29.94 1014 10 16 N/A
4:56 pm 16:56 Mostly Sunny 83 28.3 65 18.3 55 55 S 9 15 29.92 1013 10 16 N/A
5:56 pm 17:56 Cloudy 80 26.6 65 18.3 60 60 SSW 5 7 29.92 1013 10 16 N/A
6:56 pm 18:56 Mostly Cloudy 79 26.1 66 18.8 64 64 SSE 6 9 29.90 1013 10 16 N/A
7:56 pm 19:56 Mostly Cloudy 76 24.4 66 18.8 71 71 S 5 7 29.92 1013 10 16 N/A
8:56 pm 20:56 Partly Cloudy 75 23.8 66 18.8 74 74 S 6 9 29.92 1013 10 16 N/A
9:56 pm 21:56 Mostly Cloudy 75 23.8 65 18.3 71 71 S 5 7 29.92 1013 10 16 N/A
10:56 pm 22:56 Clear 73 22.7 65 18.3 76 76 S 7 11 29.90 1013 10 16 N/A
11:56 pm 23:56 Mostly Cloudy 73 22.7 64 17.7 73 73 S 6 9 29.90 1013 10 16 N/A

Powered by AerisWeather